Regional Weather Roundup
Issued by NWS

Home | Current Version | Previous Version | Text Only | Print | Product List | Glossary On
Versions: 1 2 3 4 5 6 7 8 9 10 11 12 13 14 15 16 17 18 19 20 21 22 23 24 25 26 27 28 29 30 31 32 33 34 35 36 37 38 39 40 41 42 43 44 45 46 47 48 49 50
000
ASUS43 KBIS 271310
RWRND

NORTH DAKOTA REGIONAL WEATHER ROUNDUP
NATIONAL WEATHER SERVICE BISMARCK ND
800 AM CDT TUE SEP 27 2016

NOTE: "FAIR" INDICATES FEW OR NO CLOUDS BELOW 12,000 FEET WITH NO
SIGNIFICANT WEATHER AND/OR OBSTRUCTIONS TO VISIBILITY.


NDZ001>003-009>011-017-271400-
NORTHWEST NORTH DAKOTA

CITY           SKY/WX    TMP DP  RH WIND       PRES   REMARKS
WILLISTON      CLOUDY    37  35  92 CALM      30.01S
MINOT          CLEAR     40  36  86 SW7       30.00F
MINOT AFB      CLEAR     37  34  89 NW6       29.99F
$$

NDZ018>021-031>035-040>046-271400-
SOUTHWEST NORTH DAKOTA

CITY           SKY/WX    TMP DP  RH WIND       PRES   REMARKS
BISMARCK       CLEAR     37  35  92 CALM      30.03S
DICKINSON      CLEAR     41  39  93 SW3       30.01S
GARRISON         N/A     36  34  92 CALM      30.02S
HETTINGER ARPT CLEAR     37  35  92 CALM      30.04F
$$

NDZ004>008-012>016-024-026-027-054-271400-
NORTHEAST NORTH DAKOTA

CITY           SKY/WX    TMP DP  RH WIND       PRES   REMARKS
GRAND FORKS    PTCLDY    42  37  82 W10       29.91S
GRND FRKS AFB  CLEAR     44  36  74 NW9       29.92S
DEVILS LAKE    CLEAR     39  36  89 W6        29.97S
$$

NDZ022-023-025-028>030-036>039-047>053-271400-
SOUTHEAST NORTH DAKOTA

CITY           SKY/WX    TMP DP  RH WIND       PRES   REMARKS
FARGO          CLEAR     41  36  82 W9        29.92S
JAMESTOWN      CLEAR     42  37  82 W3        29.97S
$$




USA.gov is the U.S. government's official web portal to all federal, state and local government web resources and services.